Macomb, IL

3:00 AM CDT on June 25, 2017 (GMT -0500)
Macomb Municipal

Weather History for KMQB - November, 2012

Change the Weather History Date:

Sunday, November 11, 2012

  Actual Average (KBRL) Record (KBRL)
Temperature  
Mean Temperature 50 °F -  
Max Temperature 68 °F 49 °F 78 °F (1964)
Min Temperature 32 °F 30 °F 12 °F (1986)
Degree Days  
Heating Degree Days 14    
Moisture  
Dew Point 48 °F    
Average Humidity 82    
Maximum Humidity 100    
Minimum Humidity 56    
Precipitation  
Precipitation 0.53 in - - ()
Sea Level Pressure  
Sea Level Pressure 29.88 in    
Wind  
Wind Speed 17 mph (SW)    
Max Wind Speed 30 mph    
Max Gust Speed 40 mph    
Visibility 9 miles    
Events Rain , Snow    
Averages and records for this station are not official NWS values.
T = Trace of Precipitation, MM = Missing Value Source: NWS Daily Summary

Daily Weather History Graph

Daily Weather History Graph

Search for Another Location

Airport or City:

Trip Planner

Search our weather history database for the weather conditions in past years. The results will help you decide how hot, cold, wet, or windy it might be!

Date:

Astronomy

Nov. 11, 2012 Rise Set
Actual Time 6:44 AM CST 4:48 PM CST
Civil Twilight 6:15 AM CST 5:17 PM CST
Nautical Twilight 5:43 AM CST 5:49 PM CST
Astronomical Twilight 5:10 AM CST 6:21 PM CST
Moon 3:58 AM CST (11/11) 3:12 PM CST (11/11)
Length of Visible Light 11h 01m
Length of Day
10h 03m
Waning Crescent, 7% of the Moon is Illuminated
Nov 11
Waning Crescent
Nov 13
New
Nov 20
First Quarter
Nov 28
Full
Dec 6
Last Quarter

Hourly Weather History & Observations

Time (CST) Temp. Windchill Dew Point Humidity Pressure Visibility Wind Dir Wind Speed Gust Speed Precip Events Conditions
12:15 AM 64.0 °F - 50.4 °F 61% 29.87 in 10.0 mi South 16.1 mph 20.7 mph N/A   Clear
12:35 AM 64.4 °F - 50.0 °F 59% 29.88 in 10.0 mi South 18.4 mph 21.9 mph N/A   Clear
12:55 AM 66.2 °F - 50.0 °F 56% 29.88 in 10.0 mi South 19.6 mph 27.6 mph N/A   Scattered Clouds
1:15 AM 64.9 °F - 50.7 °F 60% 29.87 in 10.0 mi South 19.6 mph - N/A   Scattered Clouds
1:35 AM 64.4 °F - 50.9 °F 62% 29.86 in 10.0 mi South 17.3 mph 23.0 mph N/A   Clear
1:55 AM 64.0 °F - 51.3 °F 63% 29.86 in 10.0 mi South 16.1 mph 21.9 mph N/A   Clear
2:15 AM 63.9 °F - 51.6 °F 64% 29.86 in 10.0 mi South 15.0 mph - N/A   Clear
2:35 AM 64.2 °F - 51.8 °F 64% 29.87 in 10.0 mi South 13.8 mph 20.7 mph N/A   Clear
2:55 AM 64.4 °F - 52.0 °F 64% 29.87 in 10.0 mi South 11.5 mph 20.7 mph N/A   Scattered Clouds
3:15 AM 64.0 °F - 52.2 °F 65% 29.87 in 10.0 mi South 11.5 mph - N/A   Mostly Cloudy
3:35 AM 63.5 °F - 52.7 °F 68% 29.87 in 10.0 mi South 10.4 mph - N/A   Mostly Cloudy
3:55 AM 62.6 °F - 52.3 °F 69% 29.86 in 10.0 mi SSE 10.4 mph - N/A   Scattered Clouds
4:15 AM 62.4 °F - 52.3 °F 70% 29.86 in 10.0 mi SSE 11.5 mph - N/A   Clear
4:35 AM 62.4 °F - 52.3 °F 70% 29.85 in 10.0 mi SSE 11.5 mph - N/A   Clear
4:55 AM 61.9 °F - 52.2 °F 70% 29.85 in 10.0 mi SSE 11.5 mph - N/A   Clear
5:15 AM 61.5 °F - 52.2 °F 71% 29.85 in 10.0 mi SSE 12.7 mph - N/A   Clear
5:35 AM 60.8 °F - 51.8 °F 72% 29.84 in 10.0 mi SSE 15.0 mph - N/A   Clear
5:55 AM 61.2 °F - 51.8 °F 71% 29.84 in 10.0 mi SSE 15.0 mph 20.7 mph N/A   Scattered Clouds
6:15 AM 61.2 °F - 52.0 °F 72% 29.83 in 10.0 mi SSE 15.0 mph 23.0 mph N/A   Clear
6:35 AM 61.0 °F - 51.8 °F 72% 29.83 in 10.0 mi SSE 17.3 mph 24.2 mph N/A   Clear
6:55 AM 60.8 °F - 51.8 °F 72% 29.82 in 10.0 mi SSE 17.3 mph - N/A   Clear
7:15 AM 60.8 °F - 52.2 °F 73% 29.82 in 10.0 mi South 19.6 mph - N/A   Clear
7:35 AM 61.9 °F - 52.7 °F 72% 29.82 in 10.0 mi SSE 20.7 mph 27.6 mph N/A   Scattered Clouds
7:55 AM 62.6 °F - 53.1 °F 71% 29.81 in 10.0 mi SSE 19.6 mph 29.9 mph N/A   Scattered Clouds
8:15 AM 62.6 °F - 53.6 °F 72% 29.80 in 10.0 mi South 23.0 mph 26.5 mph N/A   Clear
8:35 AM 64.4 °F - 53.6 °F 68% 29.80 in 10.0 mi South 25.3 mph 33.4 mph N/A   Clear
8:55 AM 64.4 °F - 53.6 °F 68% 29.79 in 10.0 mi South 27.6 mph 36.8 mph N/A   Clear
9:15 AM 64.4 °F - 53.6 °F 68% 29.78 in 10.0 mi South 28.8 mph 35.7 mph N/A   Scattered Clouds
9:35 AM 66.2 °F - 55.4 °F 68% 29.78 in 10.0 mi South 28.8 mph 36.8 mph N/A   Scattered Clouds
9:55 AM 66.2 °F - 55.4 °F 68% 29.78 in 10.0 mi South 26.5 mph 34.5 mph N/A   Clear
10:15 AM 66.2 °F - 54.9 °F 67% 29.78 in 10.0 mi South 26.5 mph 36.8 mph N/A   Clear
10:35 AM 67.1 °F - 55.4 °F 66% 29.77 in 10.0 mi South 29.9 mph 35.7 mph N/A   Scattered Clouds
10:55 AM 66.7 °F - 55.4 °F 67% 29.77 in 10.0 mi South 27.6 mph 36.8 mph N/A   Mostly Cloudy
11:15 AM 66.9 °F - 55.4 °F 66% 29.76 in 10.0 mi South 26.5 mph 40.3 mph N/A   Overcast
11:35 AM 67.1 °F - 55.4 °F 66% 29.75 in 10.0 mi South 25.3 mph 35.7 mph N/A   Overcast
11:55 AM 68.2 °F - 55.6 °F 64% 29.73 in 10.0 mi South 26.5 mph 35.7 mph N/A   Mostly Cloudy
12:15 PM 68.7 °F - 55.6 °F 63% 29.73 in 10.0 mi South 27.6 mph 33.4 mph N/A   Scattered Clouds
12:35 PM 68.9 °F - 55.6 °F 62% 29.71 in 10.0 mi South 20.7 mph 29.9 mph N/A   Mostly Cloudy
12:55 PM 67.1 °F - 56.7 °F 69% 29.72 in 7.0 mi South 21.9 mph 27.6 mph N/A Rain Light Rain
1:15 PM 65.8 °F - 56.7 °F 72% 29.72 in 10.0 mi South 17.3 mph 23.0 mph N/A Rain Light Rain
1:35 PM 54.9 °F - 53.6 °F 96% 29.77 in 1.2 mi WNW 29.9 mph 35.7 mph 0.11 in Rain Heavy Rain
1:55 PM 53.2 °F - 52.7 °F 98% 29.80 in 7.0 mi WNW 18.4 mph 27.6 mph 0.16 in Rain Rain
2:15 PM 52.9 °F - 52.7 °F 99% 29.82 in 3.0 mi WNW 16.1 mph - 0.05 in Rain Rain
2:35 PM 52.7 °F - 52.3 °F 99% 29.80 in 7.0 mi WNW 10.4 mph - 0.08 in Rain Light Rain
2:55 PM 52.7 °F - 52.5 °F 99% 29.83 in 10.0 mi West 11.5 mph - 0.08 in Rain Light Rain
3:15 PM 51.8 °F - 51.8 °F 100% 29.81 in 4.0 mi WNW 10.4 mph - 0.01 in Rain Light Rain
3:35 PM 51.4 °F - 51.3 °F 99% 29.85 in 5.0 mi West 9.2 mph - 0.03 in Rain Rain
3:55 PM 51.8 °F - 51.8 °F 100% 29.86 in 5.0 mi West 8.1 mph - N/A Rain Light Rain
4:15 PM 50.9 °F - 50.9 °F 100% 29.87 in 4.0 mi West 9.2 mph - 0.04 in Rain Light Rain
4:35 PM 49.5 °F - 49.3 °F 99% 29.88 in 7.0 mi WNW 15.0 mph - 0.05 in Rain Light Rain
4:55 PM 44.6 °F 36.9 °F 44.6 °F 100% 29.90 in 7.0 mi West 18.4 mph - N/A Rain Rain
5:15 PM 43.5 °F 35.5 °F 43.2 °F 99% 29.90 in 10.0 mi WNW 18.4 mph - 0.01 in Rain Rain
5:35 PM 41.9 °F 35.4 °F 41.5 °F 99% 29.92 in 10.0 mi WNW 11.5 mph - 0.03 in Rain Rain
5:55 PM 41.2 °F 32.7 °F 41.2 °F 100% 29.94 in 10.0 mi WNW 17.3 mph - 0.05 in Rain Light Rain
6:15 PM 40.5 °F 31.5 °F 40.3 °F 99% 29.93 in 7.0 mi WNW 18.4 mph - 0.03 in Rain Rain
6:35 PM 39.0 °F 30.3 °F 39.0 °F 100% 29.94 in 10.0 mi WNW 16.1 mph - 0.05 in Rain Rain
6:55 PM 38.3 °F 30.1 °F 38.3 °F 100% 29.96 in 7.0 mi WNW 13.8 mph - 0.09 in Rain Rain
7:15 PM 37.9 °F 27.9 °F 37.9 °F 100% 29.98 in 7.0 mi WNW 19.6 mph 24.2 mph 0.02 in Rain Rain
7:35 PM 36.7 °F 27.2 °F 36.7 °F 100% 30.00 in 7.0 mi West 16.1 mph - 0.04 in Rain Light Rain
7:55 PM 35.1 °F 26.4 °F 35.1 °F 100% 30.03 in 3.0 mi West 12.7 mph - 0.06 in Snow Light Snow
8:15 PM 34.3 °F 24.6 °F 34.3 °F 100% 30.02 in 2.5 mi WNW 15.0 mph - 0.01 in Snow Light Snow
8:35 PM 34.3 °F 23.9 °F 34.3 °F 100% 30.02 in 5.0 mi WNW 17.3 mph 23.0 mph 0.01 in Rain Light Rain
8:55 PM 34.3 °F 22.9 °F 34.3 °F 100% 30.05 in 10.0 mi WNW 20.7 mph - 0.01 in Rain Light Rain
9:15 PM 34.2 °F 23.0 °F 34.2 °F 100% 30.06 in 10.0 mi WNW 19.6 mph 23.0 mph N/A Rain Light Rain
9:35 PM 33.8 °F 23.2 °F 33.8 °F 100% 30.07 in 10.0 mi WNW 17.3 mph 20.7 mph N/A   Overcast
9:55 PM 33.8 °F 24.3 °F 33.8 °F 100% 30.08 in 10.0 mi WNW 13.8 mph - N/A   Overcast
10:15 PM 34.0 °F 25.5 °F 34.0 °F 100% 30.09 in 10.0 mi WNW 11.5 mph - N/A   Overcast
10:35 PM 33.8 °F 23.2 °F 33.8 °F 100% 30.09 in 10.0 mi WNW 17.3 mph - N/A   Overcast
10:55 PM 33.8 °F 23.9 °F 33.8 °F 100% 30.09 in 10.0 mi West 15.0 mph - N/A   Overcast
11:15 PM 33.8 °F 22.8 °F 33.8 °F 100% 30.08 in 10.0 mi WNW 18.4 mph - N/A   Overcast
11:35 PM 33.8 °F 22.5 °F 33.8 °F 100% 30.08 in 10.0 mi WNW 19.6 mph 25.3 mph N/A   Overcast
11:55 PM 32.4 °F 20.6 °F 32.4 °F 100% 30.10 in 10.0 mi WNW 19.6 mph 25.3 mph N/A   Overcast